CW4778 Auckland NZ current weather conditions

sailwx.info

Wind from 302 at 10 knots gusting 19

Air temperature 18.3° C
Dewpoint 13.0° C

Last reported at 2014-Sep-19 00:38 UTC.
Time now 2014-Sep-19 01:53 UTC

Location: S 36°52' E 174°44'.
View on Google Maps.

See reports from other nearby stations

  
Tides and Currents Weather Stations Pressure Air Temp Water Temp Dewpoint Dewpoint Depression Visibility Wind Speed Wind Dir Waves Ship Positions
date/time (UTC)wind fromknots sea level pressurealtimeterstation pressurevisibilityair tempwater tempwave heightnotes
2014-Sep-19 00:38 302 10 gusting 19 18.3
2014-Sep-19 00:28 336 7 gusting 19 18.3
2014-Sep-19 00:18 334 8 gusting 17 17.8
2014-Sep-19 00:08 16.1
2014-Sep-18 23:58 345 6 gusting 17 16.1
2014-Sep-18 23:48 268 10 gusting 14 16.1
2014-Sep-18 23:38 324 9 gusting 15 16.1
2014-Sep-18 23:28 336 4 gusting 10 16.1
2014-Sep-18 23:18 350 2 gusting 17 16.7
2014-Sep-18 23:08 16.7
2014-Sep-18 22:58 334 9 gusting 18 17.8
2014-Sep-18 22:48 348 8 gusting 14 18.9
2014-Sep-18 22:38 294 6 gusting 14 18.3
2014-Sep-18 22:28 301 9 gusting 17 18.3
2014-Sep-18 22:18 298 8 gusting 15 16.7
2014-Sep-18 22:08 323 3 gusting 13 17.2
2014-Sep-18 21:58 339 7 gusting 17 17.2
2014-Sep-18 21:48 316 6 gusting 12 17.2
2014-Sep-18 21:38 326 5 gusting 12 16.7
2014-Sep-18 21:28 332 2 gusting 13 17.8
2014-Sep-18 21:18 275 3 gusting 11 17.2
2014-Sep-18 21:08 294 1 gusting 5 16.7
2014-Sep-18 20:58 300 0 gusting 1 15.0
2014-Sep-18 20:48 353 0 gusting 1 13.3
2014-Sep-18 20:38 307 0 gusting 4 12.8
2014-Sep-18 20:28 298 0 gusting 8 12.8
2014-Sep-18 20:18 317 0 gusting 5 12.8
2014-Sep-18 20:08 336 4 gusting 13 12.8
2014-Sep-18 19:58 335 1 gusting 10 13.9
2014-Sep-18 19:48 345 1 gusting 7 13.9
2014-Sep-18 19:38 347 1 gusting 8 13.9
2014-Sep-18 19:28 356 0 gusting 2 13.3
2014-Sep-18 19:18 344 0 gusting 4 13.3
2014-Sep-18 19:08 13.3
2014-Sep-18 18:58 352 0 gusting 4 12.8
2014-Sep-18 18:48 358 0 gusting 2 12.8
2014-Sep-18 18:38 353 0 gusting 2 12.8
2014-Sep-18 18:28 009 12.8
2014-Sep-18 18:18 12.8
2014-Sep-18 18:08 005 12.2
2014-Sep-18 17:58 027 12.8
2014-Sep-18 17:48 015 0 gusting 1 12.8
2014-Sep-18 17:38 358 12.8
2014-Sep-18 17:28 354 0 gusting 1 12.8
2014-Sep-18 17:18 012 12.8
2014-Sep-18 17:08 12.8
2014-Sep-18 16:58 015 12.8
2014-Sep-18 16:48 355 1 gusting 2 12.8
2014-Sep-18 16:38 332 0 gusting 2 12.8
2014-Sep-18 16:28 12.8
2014-Sep-18 16:18 341 12.8
2014-Sep-18 16:08 12.8
2014-Sep-18 15:58 345 0 gusting 7 12.8
2014-Sep-18 15:48 008 1 gusting 13 13.3
2014-Sep-18 15:38 016 7 gusting 13 13.3
2014-Sep-18 15:28 329 7 gusting 13 13.9
2014-Sep-18 15:18 317 2 gusting 13 13.9
2014-Sep-18 15:08 13.3
2014-Sep-18 14:58 353 3 gusting 18 13.9
2014-Sep-18 14:48 332 11 gusting 14 14.4
2014-Sep-18 14:38 353 2 gusting 6 14.4
2014-Sep-18 14:28 14.4
2014-Sep-18 14:18 004 0 gusting 1 14.4
2014-Sep-18 14:08 347 0 gusting 5 14.4
2014-Sep-18 13:58 008 15.0
2014-Sep-18 13:48 011 3 gusting 8 15.0
2014-Sep-18 13:38 009 2 gusting 11 15.0
2014-Sep-18 13:28 004 2 gusting 11 15.0
2014-Sep-18 13:18 028 2 gusting 8 15.0
2014-Sep-18 13:08 318 5 gusting 10 15.0
2014-Sep-18 12:58 011 5 gusting 14 15.0
2014-Sep-18 12:48 027 5 gusting 11 15.0
2014-Sep-18 12:38 011 6 gusting 15 15.0
2014-Sep-18 12:28 008 4 gusting 12 15.0
2014-Sep-18 12:18 020 3 gusting 13 15.0
2014-Sep-18 12:08 011 3 gusting 12 15.0
2014-Sep-18 11:58 022 3 gusting 8 14.4
2014-Sep-18 11:48 007 4 gusting 8 14.4
2014-Sep-18 11:38 016 2 gusting 7 14.4
2014-Sep-18 11:28 020 2 gusting 8 14.4
2014-Sep-18 11:18 014 1 gusting 6 14.4
2014-Sep-18 11:08 003 2 gusting 12 14.4
2014-Sep-18 10:58 016 6 gusting 8 14.4
2014-Sep-18 10:48 014 4 gusting 10 14.4
2014-Sep-18 10:38 026 4 gusting 14 14.4
2014-Sep-18 10:28 007 6 gusting 13 14.4
2014-Sep-18 10:18 019 6 gusting 10 14.4
2014-Sep-18 10:08 14.4
2014-Sep-18 09:58 012 2 gusting 8 14.4
2014-Sep-18 09:48 024 2 gusting 7 14.4
2014-Sep-18 09:38 14.4
2014-Sep-18 09:28 009 2 gusting 6 14.4
2014-Sep-18 09:18 023 4 gusting 6 14.4
2014-Sep-18 09:08 065 1 gusting 6 14.4
2014-Sep-18 08:58 009 1 gusting 5 14.4
2014-Sep-18 08:48 034 2 gusting 6 14.4
2014-Sep-18 08:38 036 3 gusting 6 14.4
2014-Sep-18 08:28 014 1 gusting 4 14.4
2014-Sep-18 08:18 14.4
2014-Sep-18 08:08 052 0 gusting 5 14.4
2014-Sep-18 07:58 14.4
2014-Sep-18 07:48 035 1 gusting 4 14.4
2014-Sep-18 07:38 056 14.4
2014-Sep-18 07:28 025 1 gusting 6 14.4
2014-Sep-18 07:18 14.4
2014-Sep-18 07:08 010 1 gusting 6 14.4
2014-Sep-18 06:58 009 1 gusting 4 14.4
2014-Sep-18 06:48 019 1 gusting 5 14.4
2014-Sep-18 06:38 007 1 gusting 6 14.4
2014-Sep-18 06:28 14.4
2014-Sep-18 06:18 026 1 gusting 6 14.4
2014-Sep-18 06:08 055 1 gusting 5 15.0
2014-Sep-18 05:58 066 1 gusting 6 15.0
2014-Sep-18 05:48 008 0 gusting 4 15.0
2014-Sep-18 05:38 013 0 gusting 4 15.6
2014-Sep-18 05:28 028 1 gusting 4 15.6
2014-Sep-18 05:18 025 15.6
2014-Sep-18 05:08 029 1 gusting 4 15.6
2014-Sep-18 04:58 022 0 gusting 6 15.6
2014-Sep-18 04:48 008 4 gusting 8 15.6
2014-Sep-18 04:38 010 4 gusting 11 15.6
2014-Sep-18 04:28 026 5 gusting 10 16.1
2014-Sep-18 04:18 017 6 gusting 8 16.1
2014-Sep-18 04:08 014 0 gusting 6 16.1
2014-Sep-18 03:58 033 7 gusting 12 16.1
2014-Sep-18 03:48 032 3 gusting 8 15.6
2014-Sep-18 03:38 009 5 gusting 11 15.6
2014-Sep-18 03:28 036 1 gusting 6 15.6
2014-Sep-18 03:18 015 4 gusting 6 15.6
2014-Sep-18 03:08 039 4 gusting 10 15.0
2014-Sep-18 02:58 356 2 gusting 6 15.0
2014-Sep-18 02:48 014 2 gusting 6 15.6
2014-Sep-18 02:38 023 5 gusting 10 15.6
2014-Sep-18 02:28 039 5 gusting 10 15.6
2014-Sep-18 02:18 043 4 gusting 7 15.6
2014-Sep-18 02:08 022 2 gusting 7 15.0
2014-Sep-18 01:58 039 3 gusting 7 15.6
2014-Sep-18 01:48 013 3 gusting 6 15.0
2014-Sep-18 01:38 033 2 gusting 8 15.0
2014-Sep-18 01:28 036 4 gusting 6 15.0
2014-Sep-18 01:18 034 4 gusting 8 15.0
2014-Sep-18 01:08 016 4 gusting 8 15.0
2014-Sep-18 00:58 015 4 gusting 8 15.0
2014-Sep-18 00:48 031 4 gusting 8 15.6
2014-Sep-18 00:38 005 2 gusting 8 16.1
2014-Sep-18 00:28 001 4 gusting 10 15.0
2014-Sep-18 00:18 015 4 gusting 11 14.4
2014-Sep-18 00:08 016 2 gusting 6 13.9
2014-Sep-17 23:58 010 3 gusting 6 13.3
2014-Sep-17 23:48 005 1 gusting 6 13.3
2014-Sep-17 23:38 008 2 gusting 5 12.8
2014-Sep-17 23:28 025 1 gusting 6 12.8
2014-Sep-17 23:18 023 1 gusting 4 12.8
2014-Sep-17 23:08 007 1 gusting 6 13.3
2014-Sep-17 22:58 13.9
2014-Sep-17 22:48 006 2 gusting 10 13.9
2014-Sep-17 22:38 017 3 gusting 13 13.9
2014-Sep-17 22:28 030 1 gusting 5 13.9
2014-Sep-17 22:18 055 0 gusting 4 13.3
2014-Sep-17 22:08 004 0 gusting 2 13.3
2014-Sep-17 21:58 035 1 gusting 6 13.3
2014-Sep-17 21:48 004 3 gusting 6 13.3
2014-Sep-17 21:38 015 1 gusting 4 13.3
2014-Sep-17 21:28 018 1 gusting 4 12.8
2014-Sep-17 21:18 007 1 gusting 2 12.8
2014-Sep-17 21:08 004 0 gusting 2 12.2
2014-Sep-17 20:58 022 11.7
2014-Sep-17 20:48 009 0 gusting 4 11.7
2014-Sep-17 20:38 11.1
2014-Sep-17 20:28 292 10.6
2014-Sep-17 20:18 286 10.6
2014-Sep-17 20:08 347 10.6
2014-Sep-17 19:58 288 10.6
2014-Sep-17 19:48 10.0
2014-Sep-17 19:38 329 10.0
2014-Sep-17 19:28 343 9.4
2014-Sep-17 19:18 337 9.4
2014-Sep-17 19:08 306 8.9
2014-Sep-17 18:58 301 8.3
2014-Sep-17 18:48 8.3
2014-Sep-17 18:38 304 7.8
2014-Sep-17 18:28 7.8
2014-Sep-17 18:18 323 7.8
2014-Sep-17 18:08 297 7.8
2014-Sep-17 17:58 349 7.8
2014-Sep-17 17:48 335 7.8
2014-Sep-17 17:38 293 7.8
2014-Sep-17 17:28 299 7.8
2014-Sep-17 17:18 341 7.8
2014-Sep-17 17:08 297 7.8
2014-Sep-17 16:58 333 7.8
2014-Sep-17 16:48 351 7.8
2014-Sep-17 16:38 343 7.8
2014-Sep-17 16:28 345 7.8
2014-Sep-17 16:18 305 7.8
2014-Sep-17 16:08 315 7.2
2014-Sep-17 15:58 334 7.2
2014-Sep-17 15:48 294 7.8
2014-Sep-17 15:38 332 7.8
2014-Sep-17 15:28 347 7.8
2014-Sep-17 15:18 314 7.8
2014-Sep-17 15:08 288 7.8
2014-Sep-17 14:58 7.8
2014-Sep-17 14:48 350 7.8
2014-Sep-17 14:38 336 7.8
2014-Sep-17 14:28 278 8.3
2014-Sep-17 14:18 279 0 gusting 1 8.3
2014-Sep-17 14:08 8.3
2014-Sep-17 13:58 265 0 gusting 1 8.3
2014-Sep-17 13:48 345 1 gusting 2 8.3
2014-Sep-17 13:38 292 0 gusting 1 8.3
2014-Sep-17 13:28 331 0 gusting 1 7.8
2014-Sep-17 13:18 266 7.8
2014-Sep-17 13:08 8.3
2014-Sep-17 12:58 268 7.8
2014-Sep-17 12:48 296 8.3
2014-Sep-17 12:38 316 8.3
2014-Sep-17 12:28 347 8.3
2014-Sep-17 12:18 8.3
2014-Sep-17 12:08 271 8.3
2014-Sep-17 11:58 336 8.3
2014-Sep-17 11:48 345 8.3
2014-Sep-17 11:38 287 8.3
2014-Sep-17 11:28 348 8.3
2014-Sep-17 11:18 296 8.9
2014-Sep-17 11:08 345 8.9
2014-Sep-17 10:58 344 8.9
2014-Sep-17 10:48 351 8.9
2014-Sep-17 10:38 341 8.3
2014-Sep-17 10:28 348 8.3
2014-Sep-17 10:18 302 8.3
2014-Sep-17 10:08 345 8.3
2014-Sep-17 09:58 303 8.9
2014-Sep-17 09:48 340 8.9
2014-Sep-17 09:38 305 8.9
2014-Sep-17 09:28 348 8.9
2014-Sep-17 09:18 288 8.9
2014-Sep-17 09:08 295 8.9
2014-Sep-17 08:58 272 8.9
2014-Sep-17 08:48 292 8.9
2014-Sep-17 08:38 316 8.9
2014-Sep-17 08:28 340 9.4
2014-Sep-17 08:18 315 9.4
2014-Sep-17 08:08 9.4
2014-Sep-17 07:58 10.0
2014-Sep-17 07:48 320 10.6
2014-Sep-17 07:38 10.6
2014-Sep-17 07:28 352 10.6
2014-Sep-17 07:18 281 10.6
2014-Sep-17 07:08 11.1
2014-Sep-17 06:58 333 11.1
2014-Sep-17 06:48 11.1
2014-Sep-17 06:38 356 0 gusting 1 11.7
2014-Sep-17 06:28 350 0 gusting 7 11.7
2014-Sep-17 06:18 295 2 gusting 5 12.2
2014-Sep-17 06:08 265 4 gusting 13 12.8
2014-Sep-17 05:58 240 2 gusting 13 12.8
2014-Sep-17 05:48 12.8
2014-Sep-17 05:38 264 1 gusting 8 12.8
2014-Sep-17 05:28 339 2 gusting 11 12.8
2014-Sep-17 05:18 352 1 gusting 11 13.3
2014-Sep-17 05:08 313 9 gusting 17 13.3
2014-Sep-17 04:58 297 3 gusting 13 13.9
2014-Sep-17 04:48 299 3 gusting 13 13.9
2014-Sep-17 04:38 319 5 gusting 13 14.4
2014-Sep-17 04:28 15.0
2014-Sep-17 04:18 280 3 gusting 14 15.0
2014-Sep-17 04:08 001 6 gusting 17 15.0
2014-Sep-17 03:58 15.0
2014-Sep-17 03:48 15.0
2014-Sep-17 03:38 15.0
2014-Sep-17 03:28 314 1 gusting 11 13.9
2014-Sep-17 03:18 345 11 gusting 20 13.9
2014-Sep-17 03:08 15.0
2014-Sep-17 02:58 15.6
2014-Sep-17 02:48 313 5 gusting 17 15.6
2014-Sep-17 02:38 344 8 gusting 17 15.0
2014-Sep-17 02:28 349 6 gusting 15 15.0
2014-Sep-17 02:18 336 5 gusting 18 15.0
2014-Sep-17 02:08 294 6 gusting 15 15.6
2014-Sep-17 01:58 345 6 gusting 19 16.7
2014-Sep-17 01:48 321 1 gusting 12 16.1
2014-Sep-17 01:38 15.6
2014-Sep-17 01:28 337 4 gusting 13 13.9
2014-Sep-17 01:18 348 10 gusting 17 14.4
2014-Sep-17 01:08 16.1